If you wish to contribute or participate in the discussions about articles you are invited to join SKYbrary as a registered user

 Actions

Poitiers-Biard Airport

From SKYbrary Wiki

LFBI
Airport
ICAO: LFBI – IATA: PIS
Summary
Name Poitiers-Biard Airport
Region Europe
Territory France FR.gif
Location , Poitou-Charentes
Serving Poitiers
Elevation 128.93 m
423 ft
423 ft128.93 m
Type medium airport
Coordinates 46° 35' 15.88" N, 0° 18' 24.00" E
Runways
Designator Length Width Surface ROPS
3/21 2350 m7,709.974 ft
45 m147.638 ft
ASP yes/yes


METAR
Observation LFBI 222100Z AUTO 05007KT 9999 NCD 04/00 Q1028 NOSIG
Station Poitiers
Date/Time 22 January 2020 21:00:00
Wind direction 50°
Wind speed 07 kts
Lowest cloud amount no clouds detected
Temperature 4°C
Dew point 0°C
Humidity 75%
QNH 1028 hPa
Weather condition n/a